STARLINK-36156

Last updated on Fri Dec 19 2025 00:02:09 GMT+0000 (Coordinated Universal Time)

1 67006U 25293D 25351.83335648 -.00958648 29524-3 -21808-2 0 9994 2 67006 69.9938 309.0299 0004104 266.4594 117.5341 15.97269332 2384
UTC large
Height (km)
Speed (km/s)
/
Latitude / Longitude
Inclination (degrees)
Orbital Period (minutes)
Azimuth
Elevation
Range (km)
Doppler Factor

Next 0 passes for location: London (51.5072 / 0.1276)

Sorry there are no passes over London.